TimeEST,TemperatureF,Dew PointF,Humidity,Sea Level PressureIn,VisibilityMPH,Wind Direction,Wind SpeedMPH,Gust SpeedMPH,PrecipitationIn,Events,Conditions,WindDirDegrees,DateUTC
12:56 AM,48.9,46.0,90,30.09,10.0,Calm,Calm,-,N/A,,Mostly Cloudy,0,2014-02-23 05:56:00
1:56 AM,48.9,46.9,93,30.08,10.0,Calm,Calm,-,N/A,,Mostly Cloudy,0,2014-02-23 06:56:00
2:29 AM,48.9,46.9,93,30.07,10.0,Calm,Calm,-,N/A,,Mostly Cloudy,0,2014-02-23 07:29:00
2:56 AM,48.9,46.9,93,30.07,10.0,Calm,Calm,-,N/A,,Mostly Cloudy,0,2014-02-23 07:56:00
3:56 AM,48.9,48.0,97,30.06,10.0,Calm,Calm,-,N/A,,Mostly Cloudy,0,2014-02-23 08:56:00
4:18 AM,48.9,48.0,97,30.06,10.0,Calm,Calm,-,N/A,,Mostly Cloudy,0,2014-02-23 09:18:00
4:42 AM,48.9,48.0,97,30.06,10.0,Calm,Calm,-,N/A,,Mostly Cloudy,0,2014-02-23 09:42:00
4:56 AM,48.9,48.0,97,30.06,10.0,Calm,Calm,-,N/A,,Mostly Cloudy,0,2014-02-23 09:56:00
5:39 AM,51.1,50.0,96,30.07,10.0,Calm,Calm,-,N/A,,Mostly Cloudy,0,2014-02-23 10:39:00
5:56 AM,50.0,48.9,96,30.07,10.0,West,3.5,-,N/A,,Mostly Cloudy,260,2014-02-23 10:56:00
6:56 AM,51.1,50.0,96,30.07,10.0,Calm,Calm,-,N/A,,Mostly Cloudy,0,2014-02-23 11:56:00
7:45 AM,52.0,51.1,97,30.09,10.0,Calm,Calm,-,N/A,,Mostly Cloudy,0,2014-02-23 12:45:00
7:56 AM,53.1,52.0,96,30.09,10.0,Calm,Calm,-,N/A,,Mostly Cloudy,0,2014-02-23 12:56:00
8:05 AM,53.1,51.1,93,30.08,10.0,Calm,Calm,-,N/A,,Mostly Cloudy,0,2014-02-23 13:05:00
8:21 AM,55.0,53.1,93,30.08,10.0,Calm,Calm,-,N/A,,Overcast,0,2014-02-23 13:21:00
8:56 AM,57.0,54.0,89,30.09,10.0,Calm,Calm,-,N/A,,Overcast,0,2014-02-23 13:56:00
9:24 AM,59.0,55.0,87,30.09,10.0,Calm,Calm,-,N/A,,Overcast,0,2014-02-23 14:24:00
9:56 AM,62.1,57.0,84,30.10,10.0,Calm,Calm,-,N/A,,Overcast,0,2014-02-23 14:56:00
10:56 AM,64.9,60.1,84,30.12,10.0,WNW,6.9,-,N/A,,Overcast,300,2014-02-23 15:56:00
11:56 AM,64.0,62.1,93,30.10,9.0,North,5.8,-,0.00,Rain,Light Rain,10,2014-02-23 16:56:00
12:08 PM,64.0,62.1,93,30.10,9.0,NE,5.8,-,0.01,Rain,Light Rain,40,2014-02-23 17:08:00
12:12 PM,64.0,61.0,90,30.10,8.0,North,4.6,-,0.01,Rain-Thunderstorm,Light Thunderstorms and Rain,10,2014-02-23 17:12:00
12:56 PM,62.1,62.1,100,30.11,2.0,NW,6.9,-,0.09,Rain-Thunderstorm,Thunderstorms and Rain,310,2014-02-23 17:56:00
1:32 PM,62.1,62.1,100,30.08,4.0,North,3.5,-,0.11,Rain-Thunderstorm,Light Thunderstorms and Rain,10,2014-02-23 18:32:00
1:36 PM,62.1,61.0,96,30.07,2.5,NNE,5.8,-,0.12,Rain-Thunderstorm,Light Thunderstorms and Rain,30,2014-02-23 18:36:00
1:42 PM,63.0,62.1,97,30.07,2.5,NE,5.8,-,0.12,Rain,Light Rain,50,2014-02-23 18:42:00
1:56 PM,63.0,62.1,97,30.07,4.0,East,3.5,-,0.13,Rain,Light Rain,80,2014-02-23 18:56:00
2:56 PM,63.0,61.0,93,30.04,10.0,Calm,Calm,-,0.04,Rain,Light Rain,0,2014-02-23 19:56:00
3:56 PM,63.0,62.1,97,30.06,2.0,WSW,4.6,-,0.03,Rain,Rain,250,2014-02-23 20:56:00
4:56 PM,63.0,61.0,93,30.05,2.5,West,3.5,-,0.09,Rain,Light Rain,270,2014-02-23 21:56:00
5:23 PM,62.1,59.0,90,30.05,3.0,WSW,3.5,-,0.02,Rain,Light Rain,240,2014-02-23 22:23:00
5:56 PM,62.1,60.1,93,30.05,3.0,South,5.8,-,0.04,Rain,Light Rain,180,2014-02-23 22:56:00
6:56 PM,61.0,60.1,97,30.03,7.0,South,6.9,-,0.02,Rain,Light Rain,180,2014-02-23 23:56:00
7:56 PM,60.1,59.0,96,30.04,8.0,SSW,9.2,-,0.01,,Overcast,200,2014-02-24 00:56:00
8:56 PM,60.1,59.0,96,30.01,8.0,South,6.9,-,0.01,,Overcast,180,2014-02-24 01:56:00
9:56 PM,61.0,60.1,97,30.01,10.0,SSW,10.4,-,0.02,,Overcast,200,2014-02-24 02:56:00
10:56 PM,62.1,61.0,96,29.99,10.0,SSW,12.7,-,0.02,,Overcast,200,2014-02-24 03:56:00
11:56 PM,62.1,60.1,93,29.97,10.0,South,13.8,21.9,0.00,Rain,Light Rain,190,2014-02-24 04:56:00